Regional Weather Roundup
Issued by NWS

Home | Current Version | Previous Version | Graphics & Text | Print | Product List | Glossary On
Versions: 1 2 3 4 5 6 7 8 9 10 11 12 13 14 15 16 17 18 19 20 21 22 23 24 25 26 27 28 29 30 31 32 33 34 35 36 37 38 39 40 41 42 43 44 45 46 47 48 49 50
000
ASUS43 KFSD 202010
RWRSD

WEATHER ROUNDUP FOR SOUTH DAKOTA
NATIONAL WEATHER SERVICE SIOUX FALLS SD
200 PM CST THU NOV 20 2014

NOTE: "FAIR" INDICATES FEW OR NO CLOUDS BELOW 12,000 FEET WITH NO
SIGNIFICANT WEATHER AND/OR OBSTRUCTIONS TO VISIBILITY.


SDZ001>005-009-010-012>017-202100-
NORTHWEST AND NORTH CENTRAL SOUTH DAKOTA

CITY           SKY/WX    TMP DP  RH WIND       PRES   REMARKS
BUFFALO          N/A     28  20  71 S10       29.85F WCI  19
FAITH            N/A     24  16  71 S15       29.98F WCI  11
MOBRIDGE       SUNNY     22  12  65 S6        30.06F WCI  14
$$

SDZ012>016-024>037-041>051-057-063-072>074-202100-
SOUTHWEST AND SOUTH CENTRAL SOUTH DAKOTA

CITY           SKY/WX    TMP DP  RH WIND       PRES   REMARKS
RAPID CTY ARPT SUNNY     24  20  84 SE6       29.93F WCI  17
PIERRE         CLOUDY    22  16  78 SE8       30.08F WCI  12
CUSTER         SUNNY     43  16  33 W9        29.89F
ELLSWORTH AFB  SUNNY     30  23  75 S3        29.92F
PHILIP         SUNNY     26  19  74 SE10      30.02F WCI  16
PINE RIDGE     SUNNY     40  23  50 CALM      29.94F
SPEARFISH      FAIR      41  23  48 CALM      29.90F
WINNER         FAIR      27  19  72 SE8       30.09F WCI  19
$$

SDZ004>011-016>023-039-040-202100-
NORTHEAST SOUTH DAKOTA

CITY           SKY/WX    TMP DP  RH WIND       PRES   REMARKS
ABERDEEN       SUNNY     17   9  70 SE6       30.16F WCI   9
WATERTOWN      SUNNY     15   7  70 NW5       30.13S WCI   8
SISSETON         N/A     18   6  59 NW3       30.16S
$$

SDZ017-020-022-023-036>040-048>070-202100-
SOUTHEAST SOUTH DAKOTA

CITY           SKY/WX    TMP DP  RH WIND       PRES   REMARKS
SIOUX FALLS    MOSUNNY   20  10  65 NW9       30.17F WCI   9
HURON          SUNNY     19   9  65 NE5       30.17F WCI  12
CHAMBERLAIN    CLOUDY    22  14  72 SE3       30.12F
MITCHELL       SUNNY     22  12  65 W3        30.18F
YANKTON        CLOUDY    23  12  63 NW9       30.20S WCI  13
$$

ABBREVIATIONS USED IN REMARKS
   TC - TEMPERATURE IN CELSIUS
  WCI - WIND CHILL INDEX
   HX - HEAT INDEX
  VSB - VISIBILITY




USA.gov is the U.S. government's official web portal to all federal, state and local government web resources and services.